This demonstration page uses our WeatherBlox Daily Observations layout. Learn more.

Left ArrowRight Arrow

Hourly Observations for December 1, 2021

Temp ( °F °C ) Dew Point ( °F °C ) Humidity (%) Winds ( mph kmh ) Pressure ( in mb ) Visibility ( mi km ) Precip ( " mm )
12:15 am 00:15 Clear 39 3.7 32 undefined 77 77 W 8 13 30.04 1017 10 16 N/A
12:35 am 00:35 Clear 38 3.5 32 undefined 78 78 W 9 15 30.04 1017 10 16 N/A
12:55 am 00:55 Clear 40 4.4 32 0.1 74 74 W 10 17 30.02 1017 10 16 N/A
1:15 am 01:15 Partly Cloudy 38 3.1 31 -0.4 78 78 WNW 9 15 30.04 1017 10 16 N/A
1:35 am 01:35 Partly Cloudy 38 3.5 32 -0.1 78 78 NW 10 17 30.04 1017 10 16 N/A
1:55 am 01:55 Clear 37 3 31 -0.5 78 78 NW 9 15 30.06 1018 10 16 N/A
2:15 am 02:15 Clear 36 2.4 31 -0.5 81 81 WNW 8 13 30.06 1018 10 16 N/A
2:35 am 02:35 Clear 36 2 31 -0.7 83 83 WNW 9 15 30.09 1019 10 16 N/A
2:55 am 02:55 Clear 35 1.5 30 -1 84 84 W 8 13 30.10 1019 10 16 N/A
3:15 am 03:15 Clear 35 1.5 30 -1 84 84 WNW 9 15 30.10 1019 10 16 N/A
3:35 am 03:35 Clear 34 0.9 29 -1.5 84 84 W 9 15 30.11 1020 10 16 N/A
3:55 am 03:55 Clear 33 0.8 30 -1.3 86 86 W 10 17 30.11 1020 10 16 N/A
4:15 am 04:15 Clear 33 0.3 29 -1.6 87 87 WNW 9 15 30.11 1020 10 16 N/A
4:35 am 04:35 Clear 33 0.8 30 -1.3 86 86 WNW 9 15 30.12 1020 10 16 N/A
4:55 am 04:55 Clear 32 0.2 29 -1.6 88 88 WNW 9 15 30.11 1019 10 16 N/A
5:15 am 05:15 Clear 31 -0.3 28 -2.1 88 88 WNW 10 17 30.12 1020 10 16 N/A
5:35 am 05:35 Clear 32 -0.2 28 -2.1 87 87 NW 7 11 30.12 1020 10 16 N/A
5:55 am 05:55 Clear 30 -1.3 27 -2.8 90 90 NW 6 9 30.13 1020 10 16 N/A
6:15 am 06:15 Clear 30 -1.3 27 -2.8 90 90 WNW 6 9 30.11 1020 10 16 N/A
6:35 am 06:35 Clear 29 -1.6 26 -3.1 90 90 WNW 7 11 30.11 1020 10 16 N/A
6:55 am 06:55 Clear 30 -1.1 27 -2.7 89 89 WNW 9 15 30.12 1020 10 16 N/A
7:15 am 07:15 Clear 30 -0.9 27 -2.7 88 88 NW 8 13 30.13 1020 10 16 N/A
7:35 am 07:35 Clear 31 -0.8 27 -2.7 87 87 WNW 10 17 30.13 1020 10 16 N/A
7:55 am 07:55 Sunny 31 -0.3 28 -2.2 87 87 WNW 12 19 30.12 1020 10 16 N/A
8:15 am 08:15 Sunny 31 -0.3 28 -2.4 86 86 WNW 8 13 30.13 1020 10 16 N/A
8:35 am 08:35 Sunny 33 0.8 30 -1.2 87 87 WNW 6 9 30.12 1020 10 16 N/A
8:55 am 08:55 Sunny 36 2 31 -0.6 83 83 WNW 7 11 30.10 1019 10 16 N/A
9:15 am 09:15 Sunny 37 3 31 -0.7 77 77 WNW 6 9 30.09 1019 10 16 N/A
9:35 am 09:35 Sunny 38 3.5 31 -0.4 76 76 W 5 7 30.09 1019 10 16 N/A
9:55 am 09:55 Sunny 41 4.8 32 undefined 71 71 W 7 11 30.09 1019 10 16 N/A
10:15 am 10:15 Sunny 44 6.7 33 0.4 64 64 W 6 9 30.07 1018 10 16 N/A
10:35 am 10:35 Sunny 47 8.1 33 0.6 59 59 W 3 6 30.06 1018 10 16 N/A
10:55 am 10:55 Sunny 51 10.6 33 0.8 51 51 WSW 5 7 30.03 1017 10 16 N/A
11:15 am 11:15 Sunny 57 13.9 30 -1 36 36 W 15 24 29.99 1015 10 16 N/A
11:35 am 11:35 Sunny 58 14.7 28 -2.5 31 31 W 13 20 29.96 1015 10 16 N/A
11:55 am 11:55 Sunny 60 15.7 27 -2.9 28 28 W 17 28 29.93 1014 10 16 N/A
12:15 pm 12:15 Sunny 62 16.8 27 -2.6 27 27 W 22 35 29.91 1013 10 16 N/A
12:35 pm 12:35 Sunny 64 17.5 28 -2.4 26 26 W 18 30 29.90 1013 10 16 N/A
12:55 pm 12:55 Sunny 65 18.2 28 -2.3 25 25 W 18 30 29.89 1012 10 16 N/A
1:15 pm 13:15 Sunny 67 19.3 28 -2.1 24 24 W 17 28 29.87 1011 10 16 N/A
1:35 pm 13:35 Sunny 67 19.5 28 -2.4 23 23 W 17 28 29.86 1011 10 16 N/A
1:55 pm 13:55 Sunny 68 19.9 28 -2.1 23 23 W 20 31 29.84 1011 10 16 N/A
2:15 pm 14:15 Sunny 67 19.5 29 -1.8 24 24 W 18 30 29.85 1011 10 16 N/A
2:35 pm 14:35 Sunny 67 19.4 29 -1.9 24 24 W 15 24 29.86 1011 10 16 N/A
2:55 pm 14:55 Sunny 67 19.2 29 -1.7 24 24 W 17 28 29.87 1011 10 16 N/A
3:15 pm 15:15 Sunny 67 19.6 30 -1 25 25 W 12 19 29.86 1011 10 16 N/A
3:35 pm 15:35 Sunny 66 19 30 -0.9 26 26 W 12 19 29.86 1011 10 16 N/A
3:55 pm 15:55 Sunny 67 19.2 32 undefined 28 28 W 9 15 29.86 1011 10 16 N/A
4:15 pm 16:15 Sunny 68 19.9 32 undefined 26 26 W 9 15 29.85 1011 10 16 N/A
4:35 pm 16:35 Sunny 65 18.2 32 undefined 29 29 W 9 15 29.88 1012 10 16 N/A
4:55 pm 16:55 Sunny 60 15.3 32 0.1 36 36 W 9 15 29.90 1013 10 16 N/A
5:15 pm 17:15 Clear 57 13.7 32 undefined 39 39 W 7 11 29.92 1013 10 16 N/A
5:35 pm 17:35 Clear 58 14.3 31 -0.6 36 36 SSW 6 9 29.91 1013 10 16 N/A
5:55 pm 17:55 Clear 54 12 31 -0.4 43 43 SW 6 9 29.94 1014 10 16 N/A
6:15 pm 18:15 Clear 53 11.9 31 -0.5 43 43 W 8 13 29.94 1014 10 16 N/A
6:35 pm 18:35 Clear 51 10.3 32 -0.2 48 48 W 12 19 29.96 1015 10 16 N/A
6:55 pm 18:55 Clear 49 9.7 31 -0.3 50 50 W 8 13 29.96 1015 10 16 N/A
7:15 pm 19:15 Clear 50 10.1 31 -0.5 48 48 W 7 11 29.96 1015 10 16 N/A
7:35 pm 19:35 Clear 50 10 31 -0.3 49 49 W 9 15 29.96 1015 10 16 N/A
7:55 pm 19:55 Clear 49 9.6 32 undefined 52 52 W 10 17 29.96 1015 10 16 N/A
8:15 pm 20:15 Clear 50 9.8 32 undefined 51 51 W 12 19 29.95 1014 10 16 N/A
8:35 pm 20:35 Clear 49 9.6 32 -0.2 51 51 W 9 15 29.95 1014 10 16 N/A
8:55 pm 20:55 Clear 46 8 31 -0.4 56 56 W 7 11 29.97 1015 10 16 N/A
9:15 pm 21:15 Clear 43 6.1 30 -1.3 59 59 W 5 7 29.99 1015 10 16 N/A
9:35 pm 21:35 Clear 41 5.1 29 -1.4 63 63 WNW 6 9 29.99 1015 10 16 N/A
9:55 pm 21:55 Clear 41 4.9 30 -1 66 66 NW 6 9 30.00 1016 10 16 N/A
10:15 pm 22:15 Clear 42 5.6 31 -0.8 64 64 NNW 5 7 29.99 1016 10 16 N/A
10:35 pm 22:35 Clear 42 5.4 30 -1.2 63 63 WNW 5 7 30.00 1016 10 16 N/A
10:55 pm 22:55 Clear 38 3.4 29 -1.5 71 71 WNW 3 6 30.01 1016 10 16 N/A
11:15 pm 23:15 Clear 40 4.5 30 -1.2 67 67 NW 5 7 30.01 1016 10 16 N/A
11:35 pm 23:35 Clear 38 3.2 29 -1.6 71 71 NW 5 7 30.04 1017 10 16 N/A
11:55 pm 23:55 Clear 39 3.8 30 -1 71 71 W 6 9 30.03 1017 10 16 N/A

Powered by AerisWeather